Time,TemperatureF,DewpointF,PressureIn,WindDirection,WindDirectionDegrees,WindSpeedMPH,WindSpeedGustMPH,Humidity,HourlyPrecipIn,Conditions,Clouds,dailyrainin,SoftwareType,DateUTC
2013-03-08 00:01:00,48.0,41.0,29.84,NNW,341,0.0,0.0,78,0.00,,,0.00,,2013-03-08 08:01:00,
2013-03-08 00:11:00,48.0,41.0,29.84,NNW,341,0.0,0.0,78,0.00,,,0.00,,2013-03-08 08:11:00,
2013-03-08 00:21:00,49.0,42.0,29.84,NNW,344,0.0,1.0,78,0.00,,,0.00,,2013-03-08 08:21:00,
2013-03-08 00:31:00,48.0,41.0,29.84,NNW,344,0.0,0.0,78,0.00,,,0.00,,2013-03-08 08:31:00,
2013-03-08 00:41:00,48.0,41.0,29.84,NNW,344,0.0,0.0,78,0.00,,,0.00,,2013-03-08 08:41:00,
2013-03-08 00:52:00,47.0,41.0,29.84,NNW,344,0.0,0.0,79,0.00,,,0.00,,2013-03-08 08:52:00,
2013-03-08 01:02:00,46.0,41.0,29.84,NNW,345,0.0,0.0,83,0.00,,,0.00,,2013-03-08 09:02:00,
2013-03-08 01:11:00,46.0,41.0,29.84,NNW,345,0.0,0.0,83,0.00,,,0.00,,2013-03-08 09:11:00,
2013-03-08 01:21:00,45.0,41.0,29.84,NNW,344,0.0,0.0,85,0.00,,,0.00,,2013-03-08 09:21:00,
2013-03-08 01:31:00,45.0,41.0,29.84,NNW,345,0.0,0.0,86,0.00,,,0.00,,2013-03-08 09:31:00,
2013-03-08 01:41:00,45.0,41.0,29.84,NNW,345,0.0,0.0,86,0.00,,,0.00,,2013-03-08 09:41:00,
2013-03-08 01:52:00,45.0,41.0,29.84,NNW,345,0.0,0.0,86,0.00,,,0.00,,2013-03-08 09:52:00,
2013-03-08 02:01:00,44.0,40.0,29.83,WNW,290,0.0,0.0,86,0.00,,,0.00,,2013-03-08 10:01:00,
2013-03-08 02:11:00,44.0,40.0,29.83,WNW,290,0.0,0.0,86,0.00,,,0.00,,2013-03-08 10:11:00,
2013-03-08 02:21:00,44.0,40.0,29.83,NW,314,0.0,0.0,86,0.00,,,0.00,,2013-03-08 10:21:00,
2013-03-08 02:31:00,43.0,39.0,29.83,NW,313,0.0,0.0,87,0.00,,,0.00,,2013-03-08 10:31:00,
2013-03-08 02:41:00,43.0,39.0,29.83,NW,313,0.0,0.0,87,0.00,,,0.00,,2013-03-08 10:41:00,
2013-03-08 02:52:00,43.0,40.0,29.82,NW,313,0.0,0.0,89,0.00,,,0.00,,2013-03-08 10:52:00,
2013-03-08 03:01:00,42.0,39.0,29.82,NW,313,0.0,0.0,89,0.00,,,0.00,,2013-03-08 11:01:00,
2013-03-08 03:11:00,42.0,39.0,29.82,NW,313,0.0,0.0,89,0.00,,,0.00,,2013-03-08 11:11:00,
2013-03-08 03:21:00,42.0,40.0,29.81,NW,313,0.0,0.0,91,0.00,,,0.00,,2013-03-08 11:21:00,
2013-03-08 03:32:00,42.0,39.0,29.80,West,277,0.0,0.0,89,0.00,,,0.00,,2013-03-08 11:32:00,
2013-03-08 03:41:00,42.0,39.0,29.80,West,277,0.0,0.0,89,0.00,,,0.00,,2013-03-08 11:41:00,
2013-03-08 03:52:00,42.0,39.0,29.80,North,4,0.0,1.0,88,0.00,,,0.00,,2013-03-08 11:52:00,
2013-03-08 04:01:00,42.0,39.0,29.80,North,4,0.0,1.0,88,0.00,,,0.00,,2013-03-08 12:01:00,
2013-03-08 04:11:00,42.0,39.0,29.80,North,4,0.0,1.0,88,0.00,,,0.00,,2013-03-08 12:11:00,
2013-03-08 04:22:00,42.0,38.0,29.80,NNW,341,0.0,1.0,87,0.00,,,0.00,,2013-03-08 12:22:00,
2013-03-08 04:31:00,41.0,38.0,29.80,NNW,339,0.0,0.0,88,0.00,,,0.00,,2013-03-08 12:31:00,
2013-03-08 04:42:00,41.0,38.0,29.80,NNW,339,0.0,0.0,88,0.00,,,0.00,,2013-03-08 12:42:00,
2013-03-08 04:52:00,41.0,38.0,29.80,North,354,0.0,1.0,88,0.00,,,0.00,,2013-03-08 12:52:00,
2013-03-08 05:01:00,41.0,37.0,29.80,WNW,296,0.0,3.0,86,0.00,,,0.00,,2013-03-08 13:01:00,
2013-03-08 05:11:00,41.0,37.0,29.80,WNW,296,0.0,3.0,86,0.00,,,0.00,,2013-03-08 13:11:00,
2013-03-08 05:21:00,41.0,37.0,29.80,NNE,29,0.0,1.0,86,0.00,,,0.00,,2013-03-08 13:21:00,
2013-03-08 05:32:00,40.0,36.0,29.80,NNE,25,0.0,1.0,86,0.00,,,0.00,,2013-03-08 13:32:00,
2013-03-08 05:42:00,40.0,36.0,29.80,NNE,25,0.0,1.0,86,0.00,,,0.00,,2013-03-08 13:42:00,
2013-03-08 05:52:00,40.0,36.0,29.80,North,359,0.0,1.0,86,0.00,,,0.00,,2013-03-08 13:52:00,
2013-03-08 06:02:00,40.0,36.0,29.81,North,4,0.0,0.0,87,0.00,,,0.00,,2013-03-08 14:02:00,
2013-03-08 06:11:00,40.0,36.0,29.81,North,4,0.0,0.0,87,0.00,,,0.00,,2013-03-08 14:11:00,
2013-03-08 06:21:00,40.0,36.0,29.81,North,354,0.0,2.0,86,0.00,,,0.00,,2013-03-08 14:21:00,
2013-03-08 06:32:00,39.0,35.0,29.81,North,355,0.0,2.0,86,0.00,,,0.00,,2013-03-08 14:32:00,
2013-03-08 06:41:00,39.0,35.0,29.81,North,355,0.0,2.0,86,0.00,,,0.00,,2013-03-08 14:41:00,
2013-03-08 06:52:00,39.0,35.0,29.81,WNW,294,0.0,2.0,85,0.00,,,0.00,,2013-03-08 14:52:00,
2013-03-08 07:02:00,40.0,36.0,29.82,WNW,290,0.0,3.0,84,0.00,,,0.00,,2013-03-08 15:02:00,
2013-03-08 07:11:00,40.0,36.0,29.82,NW,307,0.0,3.0,84,0.00,,,0.00,,2013-03-08 15:11:00,
2013-03-08 07:21:00,40.0,36.0,29.82,NW,307,0.0,3.0,84,0.00,,,0.00,,2013-03-08 15:21:00,
2013-03-08 07:31:00,40.0,36.0,29.81,NNE,15,1.0,3.0,84,0.00,,,0.00,,2013-03-08 15:31:00,
2013-03-08 07:42:00,40.0,36.0,29.81,NNE,15,1.0,3.0,84,0.00,,,0.00,,2013-03-08 15:42:00,
2013-03-08 07:53:00,41.0,36.0,29.81,NNE,22,1.0,3.0,82,0.00,,,0.00,,2013-03-08 15:53:00,
2013-03-08 08:01:00,42.0,36.0,29.82,North,11,2.0,6.0,79,0.00,,,0.00,,2013-03-08 16:01:00,
2013-03-08 08:11:00,42.0,36.0,29.82,North,11,2.0,6.0,79,0.00,,,0.00,,2013-03-08 16:11:00,
2013-03-08 08:21:00,44.0,38.0,29.82,NW,318,1.0,6.0,78,0.00,,,0.00,,2013-03-08 16:21:00,
2013-03-08 08:31:00,45.0,38.0,29.82,NE,36,2.0,5.0,75,0.00,,,0.00,,2013-03-08 16:31:00,
2013-03-08 08:41:00,45.0,38.0,29.82,NE,36,2.0,5.0,75,0.00,,,0.00,,2013-03-08 16:41:00,
2013-03-08 08:52:00,47.0,39.0,29.83,WNW,283,0.0,3.0,74,0.00,,,0.00,,2013-03-08 16:52:00,
2013-03-08 09:02:00,48.0,39.0,29.83,NNW,347,0.0,4.0,72,0.00,,,0.00,,2013-03-08 17:02:00,
2013-03-08 09:11:00,48.0,39.0,29.83,NNW,347,0.0,4.0,72,0.00,,,0.00,,2013-03-08 17:11:00,
2013-03-08 09:21:00,49.0,40.0,29.83,NNE,12,0.0,4.0,70,0.00,,,0.00,,2013-03-08 17:21:00,
2013-03-08 09:31:00,50.0,40.0,29.83,WNW,288,1.0,5.0,69,0.00,,,0.00,,2013-03-08 17:31:00,
2013-03-08 09:41:00,50.0,40.0,29.83,WNW,288,1.0,5.0,69,0.00,,,0.00,,2013-03-08 17:41:00,
2013-03-08 09:52:00,50.0,40.0,29.83,WNW,288,1.0,5.0,69,0.00,,,0.00,,2013-03-08 17:52:00,
2013-03-08 10:01:00,53.0,41.0,29.83,WSW,255,1.0,5.0,63,0.00,,,0.00,,2013-03-08 18:01:00,
2013-03-08 10:11:00,53.0,41.0,29.83,WSW,255,1.0,5.0,63,0.00,,,0.00,,2013-03-08 18:11:00,
2013-03-08 10:21:00,55.0,39.0,29.82,NE,51,1.0,5.0,55,0.00,,,0.00,,2013-03-08 18:21:00,
2013-03-08 10:31:00,55.0,39.0,29.83,NNE,22,2.0,4.0,54,0.00,,,0.00,,2013-03-08 18:31:00,
2013-03-08 10:42:00,55.0,39.0,29.83,NNE,22,2.0,4.0,54,0.00,,,0.00,,2013-03-08 18:42:00,
2013-03-08 10:52:00,56.0,40.0,29.82,SW,229,1.0,5.0,55,0.00,,,0.00,,2013-03-08 18:52:00,
2013-03-08 11:01:00,57.0,40.0,29.82,NW,309,1.0,6.0,52,0.00,,,0.00,,2013-03-08 19:01:00,
2013-03-08 11:11:00,57.0,40.0,29.82,NW,309,1.0,6.0,52,0.00,,,0.00,,2013-03-08 19:11:00,
2013-03-08 11:21:00,58.0,38.0,29.82,WNW,300,2.0,6.0,48,0.00,,,0.00,,2013-03-08 19:21:00,
2013-03-08 11:31:00,60.0,40.0,29.82,West,270,2.0,4.0,47,0.00,,,0.00,,2013-03-08 19:31:00,
2013-03-08 11:41:00,60.0,40.0,29.82,West,270,2.0,4.0,47,0.00,,,0.00,,2013-03-08 19:41:00,
2013-03-08 11:52:00,60.0,39.0,29.82,NNE,33,4.0,8.0,46,0.00,,,0.00,,2013-03-08 19:52:00,
2013-03-08 12:01:00,61.0,40.0,29.81,NE,54,2.0,5.0,45,0.00,,,0.00,,2013-03-08 20:01:00,
2013-03-08 12:11:00,61.0,40.0,29.81,NE,54,2.0,5.0,45,0.00,,,0.00,,2013-03-08 20:11:00,
2013-03-08 12:21:00,62.0,39.0,29.81,West,274,2.0,7.0,42,0.00,,,0.00,,2013-03-08 20:21:00,
2013-03-08 12:31:00,62.0,37.0,29.81,WNW,290,2.0,5.0,40,0.00,,,0.00,,2013-03-08 20:31:00,
2013-03-08 12:41:00,62.0,37.0,29.81,WNW,290,2.0,5.0,40,0.00,,,0.00,,2013-03-08 20:41:00,
2013-03-08 12:53:00,63.0,39.0,29.80,West,277,1.0,9.0,41,0.00,,,0.00,,2013-03-08 20:53:00,
2013-03-08 13:01:00,63.0,38.0,29.80,NNE,15,1.0,4.0,40,0.00,,,0.00,,2013-03-08 21:01:00,
2013-03-08 13:11:00,63.0,38.0,29.80,NNE,15,1.0,4.0,40,0.00,,,0.00,,2013-03-08 21:11:00,
2013-03-08 13:21:00,64.0,39.0,29.80,East,80,1.0,5.0,40,0.00,,,0.00,,2013-03-08 21:21:00,
2013-03-08 13:32:00,64.0,38.0,29.80,WSW,249,1.0,4.0,38,0.00,,,0.00,,2013-03-08 21:32:00,
2013-03-08 13:41:00,64.0,38.0,29.80,WSW,249,1.0,4.0,38,0.00,,,0.00,,2013-03-08 21:41:00,
2013-03-08 13:52:00,64.0,39.0,29.79,NW,325,0.0,7.0,39,0.00,,,0.00,,2013-03-08 21:52:00,
2013-03-08 14:01:00,64.0,37.0,29.79,NNW,347,1.0,4.0,37,0.00,,,0.00,,2013-03-08 22:01:00,
2013-03-08 14:11:00,64.0,37.0,29.79,NNW,347,1.0,4.0,37,0.00,,,0.00,,2013-03-08 22:11:00,
2013-03-08 14:21:00,65.0,37.0,29.78,WSW,255,1.0,4.0,36,0.00,,,0.00,,2013-03-08 22:21:00,
2013-03-08 14:31:00,65.0,37.0,29.78,NE,34,0.0,4.0,36,0.00,,,0.00,,2013-03-08 22:31:00,
2013-03-08 14:41:00,65.0,37.0,29.78,NE,34,0.0,4.0,36,0.00,,,0.00,,2013-03-08 22:41:00,
2013-03-08 14:52:00,65.0,37.0,29.78,West,273,2.0,7.0,36,0.00,,,0.00,,2013-03-08 22:52:00,
2013-03-08 15:01:00,65.0,39.0,29.79,SW,236,2.0,9.0,39,0.00,,,0.00,,2013-03-08 23:01:00,
2013-03-08 15:11:00,65.0,39.0,29.79,SW,236,2.0,9.0,39,0.00,,,0.00,,2013-03-08 23:11:00,
2013-03-08 15:21:00,65.0,41.0,29.79,SW,220,5.0,8.0,41,0.00,,,0.00,,2013-03-08 23:21:00,
2013-03-08 15:31:00,64.0,38.0,29.79,SW,214,2.0,8.0,38,0.00,,,0.00,,2013-03-08 23:31:00,
2013-03-08 15:41:00,64.0,38.0,29.79,SW,214,2.0,8.0,38,0.00,,,0.00,,2013-03-08 23:41:00,
2013-03-08 15:52:00,64.0,38.0,29.79,WSW,239,2.0,7.0,38,0.00,,,0.00,,2013-03-08 23:52:00,
2013-03-08 16:01:00,64.0,39.0,29.79,SW,224,2.0,7.0,39,0.00,,,0.00,,2013-03-09 00:01:00,
2013-03-08 16:11:00,64.0,39.0,29.79,SW,224,2.0,7.0,39,0.00,,,0.00,,2013-03-09 00:11:00,
2013-03-08 16:21:00,65.0,41.0,29.79,SW,229,2.0,5.0,41,0.00,,,0.00,,2013-03-09 00:21:00,
2013-03-08 16:31:00,67.0,41.0,29.79,SW,218,3.0,10.0,39,0.00,,,0.00,,2013-03-09 00:31:00,
2013-03-08 16:41:00,67.0,41.0,29.79,SW,218,3.0,10.0,39,0.00,,,0.00,,2013-03-09 00:41:00,
2013-03-08 16:52:00,67.0,44.0,29.79,SW,225,3.0,11.0,43,0.00,,,0.00,,2013-03-09 00:52:00,
2013-03-08 17:01:00,66.0,45.0,29.79,SSW,212,5.0,13.0,47,0.00,,,0.00,,2013-03-09 01:01:00,
2013-03-08 17:11:00,65.0,45.0,29.80,SW,225,7.0,11.0,48,0.00,,,0.00,,2013-03-09 01:11:00,
2013-03-08 17:21:00,65.0,45.0,29.80,SW,225,7.0,11.0,48,0.00,,,0.00,,2013-03-09 01:21:00,
2013-03-08 17:31:00,63.0,45.0,29.80,West,259,6.0,13.0,52,0.00,,,0.00,,2013-03-09 01:31:00,
2013-03-08 17:41:00,63.0,45.0,29.80,West,259,6.0,13.0,52,0.00,,,0.00,,2013-03-09 01:41:00,
2013-03-08 17:51:00,60.0,45.0,29.81,WSW,239,6.0,14.0,57,0.00,,,0.00,,2013-03-09 01:51:00,
2013-03-08 18:01:00,58.0,44.0,29.82,WSW,240,7.0,15.0,60,0.00,,,0.00,,2013-03-09 02:01:00,
2013-03-08 18:11:00,58.0,44.0,29.82,WSW,240,7.0,15.0,60,0.00,,,0.00,,2013-03-09 02:11:00,
2013-03-08 18:21:00,57.0,44.0,29.83,West,269,4.0,13.0,62,0.00,,,0.00,,2013-03-09 02:21:00,
2013-03-08 18:31:00,56.0,44.0,29.84,WSW,245,6.0,-999.0,64,-99.99,,,-99.99,,2013-03-09 02:31:00,
2013-03-08 18:41:00,55.0,44.0,29.85,SW,236,3.0,9.0,66,0.00,,,0.00,,2013-03-09 02:41:00,
2013-03-08 18:51:00,55.0,44.0,29.85,SW,236,3.0,9.0,66,0.00,,,0.00,,2013-03-09 02:51:00,
2013-03-08 19:01:00,54.0,44.0,29.86,South,174,2.0,5.0,70,0.00,,,0.00,,2013-03-09 03:01:00,
2013-03-08 19:11:00,54.0,44.0,29.86,South,174,2.0,5.0,70,0.00,,,0.00,,2013-03-09 03:11:00,
2013-03-08 19:21:00,54.0,44.0,29.86,South,174,2.0,5.0,70,0.00,,,0.00,,2013-03-09 03:21:00,
2013-03-08 19:31:00,52.0,44.0,29.88,SSW,201,1.0,5.0,74,0.00,,,0.00,,2013-03-09 03:31:00,
2013-03-08 19:41:00,52.0,44.0,29.88,SSW,201,1.0,5.0,74,0.00,,,0.00,,2013-03-09 03:41:00,
2013-03-08 19:52:00,51.0,43.0,29.89,SW,226,2.0,7.0,75,0.00,,,0.00,,2013-03-09 03:52:00,
2013-03-08 20:01:00,51.0,44.0,29.89,SW,218,1.0,5.0,76,0.00,,,0.00,,2013-03-09 04:01:00,
2013-03-08 20:11:00,51.0,44.0,29.89,SW,218,1.0,5.0,76,0.00,,,0.00,,2013-03-09 04:11:00,
2013-03-08 20:21:00,50.0,43.0,29.90,SSW,195,1.0,4.0,77,0.00,,,0.00,,2013-03-09 04:21:00,
2013-03-08 20:31:00,50.0,43.0,29.90,SSW,212,1.0,4.0,78,0.00,,,0.00,,2013-03-09 04:31:00,
2013-03-08 20:41:00,50.0,43.0,29.90,SSW,212,1.0,4.0,78,0.00,,,0.00,,2013-03-09 04:41:00,
2013-03-08 20:52:00,49.0,43.0,29.91,SSE,154,2.0,6.0,80,0.00,,,0.00,,2013-03-09 04:52:00,
2013-03-08 21:01:00,49.0,43.0,29.93,SE,136,2.0,4.0,80,0.00,,,0.00,,2013-03-09 05:01:00,
2013-03-08 21:11:00,49.0,43.0,29.93,SE,136,2.0,4.0,80,0.00,,,0.00,,2013-03-09 05:11:00,
2013-03-08 21:21:00,49.0,43.0,29.94,ENE,75,1.0,4.0,80,0.00,,,0.00,,2013-03-09 05:21:00,
2013-03-08 21:31:00,48.0,42.0,29.95,East,88,2.0,4.0,81,0.00,,,0.00,,2013-03-09 05:31:00,
2013-03-08 21:42:00,48.0,42.0,29.95,East,88,2.0,4.0,81,0.00,,,0.00,,2013-03-09 05:42:00,
2013-03-08 21:52:00,48.0,43.0,29.96,ESE,116,2.0,6.0,82,0.00,,,0.00,,2013-03-09 05:52:00,
2013-03-08 22:01:00,48.0,43.0,29.97,East,94,2.0,5.0,82,0.00,,,0.00,,2013-03-09 06:01:00,
2013-03-08 22:11:00,47.0,42.0,29.98,East,79,2.0,5.0,83,0.00,,,0.00,,2013-03-09 06:11:00,
2013-03-08 22:22:00,47.0,42.0,29.98,East,79,2.0,5.0,83,0.00,,,0.00,,2013-03-09 06:22:00,
2013-03-08 22:31:00,47.0,42.0,29.99,ESE,122,2.0,5.0,83,0.00,,,0.00,,2013-03-09 06:31:00,
2013-03-08 22:41:00,47.0,42.0,29.99,ESE,122,2.0,5.0,83,0.00,,,0.00,,2013-03-09 06:41:00,
2013-03-08 22:52:00,47.0,42.0,29.99,SE,146,3.0,8.0,83,0.00,,,0.00,,2013-03-09 06:52:00,
2013-03-08 23:01:00,48.0,43.0,29.99,SSE,152,4.0,7.0,82,0.00,,,0.00,,2013-03-09 07:01:00,
2013-03-08 23:11:00,48.0,43.0,29.99,SSE,152,4.0,7.0,82,0.00,,,0.00,,2013-03-09 07:11:00,
2013-03-08 23:21:00,47.0,42.0,29.99,SE,141,3.0,7.0,82,0.00,,,0.00,,2013-03-09 07:21:00,
2013-03-08 23:31:00,47.0,42.0,29.99,ESE,115,3.0,10.0,82,0.00,,,0.00,,2013-03-09 07:31:00,
2013-03-08 23:41:00,47.0,42.0,29.99,ESE,115,3.0,10.0,82,0.00,,,0.00,,2013-03-09 07:41:00,
2013-03-08 23:52:00,47.0,42.0,30.00,SSE,153,2.0,7.0,82,0.00,,,0.00,,2013-03-09 07:52:00,